Location: Miles
(41.4492°N, 81.6087°W)
Time: 00:17:21
(UTC+00:00)

SR - All Passes

Search period start: 12 September 2024 00:00
Search period end: 22 September 2024 00:00
Orbit: 579 x 855 km, 66.7° (Epoch: 11 September)

Date Brightness Start Highest point End Pass type
(mag) Time Alt. Az. Time Alt. Az. Time Alt. Az.
12 Sep - 03:07:22 10° N 03:10:57 22° NE 03:14:44 10° E visible
12 Sep - 04:48:24 10° NW 04:52:58 51° WSW 04:57:53 10° S visible
12 Sep - 19:17:02 10° SSW 19:21:18 78° WNW 19:25:33 10° NNE daylight
12 Sep - 21:03:09 10° NW 21:03:50 10° NW 21:04:34 10° NNW daylight
13 Sep - 02:16:00 10° NNE 02:17:37 12° NE 02:19:16 10° ENE visible
13 Sep - 03:55:29 10° NNW 04:00:09 72° ENE 04:05:12 10° SE visible
13 Sep - 05:39:09 10° WNW 05:41:28 13° WSW 05:43:52 10° SW night (unlit)
13 Sep - 18:24:30 10° S 18:28:32 41° ESE 18:32:31 10° NE daylight
13 Sep - 20:07:17 10° W 20:10:28 20° NW 20:13:40 10° N daylight
14 Sep - 03:02:55 10° NNW 03:07:10 34° NE 03:11:42 10° ESE visible
14 Sep - 04:44:45 10° NW 04:48:53 30° WSW 04:53:18 10° S visible
14 Sep - 17:33:08 10° SSE 17:35:56 17° ESE 17:38:42 10° ENE daylight
14 Sep - 19:13:17 10° SW 19:17:20 43° NW 19:21:24 10° NNE daylight
15 Sep - 02:10:48 10° N 02:13:58 18° NE 02:17:16 10° E visible
15 Sep - 03:51:28 10° NW 03:56:08 68° WSW 04:01:13 10° SSE visible
15 Sep - 18:20:09 10° SSW 18:24:25 78° ESE 18:28:39 10° NNE daylight
15 Sep - 20:04:44 10° WNW 20:06:45 13° NW 20:08:47 10° NNW daylight
16 Sep - 02:58:38 10° NNW 03:03:14 56° ENE 03:08:13 10° SE visible
16 Sep - 04:41:28 10° WNW 04:44:42 18° WSW 04:48:05 10° SSW visible
16 Sep - 17:27:55 10° S 17:31:40 30° ESE 17:35:24 10° NE daylight
16 Sep - 19:09:52 10° WSW 19:13:25 26° NW 19:17:01 10° N daylight
17 Sep - 02:06:10 10° N 02:10:09 27° NE 02:14:24 10° ESE visible
17 Sep - 03:47:35 10° NW 03:52:02 39° WSW 03:56:47 10° S visible
17 Sep - 16:37:17 10° SE 16:39:06 12° ESE 16:40:54 10° E daylight
17 Sep - 18:16:09 10° SW 18:20:20 58° WNW 18:24:32 10° NNE daylight
18 Sep - 01:14:15 10° N 01:16:50 14° NE 01:19:31 10° ENE visible
18 Sep - 02:54:27 10° NNW 02:59:11 88° WSW 03:04:20 10° SSE visible
18 Sep - 04:40:00 10° W 04:40:23 10° WSW 04:40:47 10° WSW visible
18 Sep - 17:23:17 10° SSW 17:27:26 56° ESE 17:31:36 10° NE daylight
18 Sep - 19:06:51 10° W 19:09:35 16° NW 19:12:19 10° N daylight
19 Sep - 02:01:43 10° NNW 02:06:12 43° NE 02:11:02 10° SE visible
19 Sep - 03:43:58 10° WNW 03:47:48 24° WSW 03:51:51 10° SSW visible
19 Sep - 16:31:24 10° SSE 16:34:44 23° ESE 16:38:04 10° ENE daylight
19 Sep - 18:12:27 10° WSW 18:16:18 33° NW 18:20:11 10° NNE daylight
20 Sep - 01:09:21 10° N 01:13:01 22° NE 01:16:52 10° E visible
20 Sep - 02:50:24 10° NW 02:55:02 52° WSW 03:00:03 10° S visible
20 Sep - 17:19:00 10° SSW 17:23:15 79° WNW 17:27:30 10° NNE daylight
20 Sep - 19:04:53 10° NW 19:05:47 11° NW 19:06:42 10° NNW daylight
21 Sep - 00:17:51 10° NNE 00:19:34 12° NE 00:21:20 10° ENE visible
21 Sep - 01:57:23 10° NNW 02:02:07 72° ENE 02:07:15 10° SE visible
21 Sep - 03:40:56 10° WNW 03:43:27 14° WSW 03:46:03 10° SW visible
21 Sep - 16:26:24 10° S 16:30:23 40° ESE 16:34:23 10° NE daylight
21 Sep - 18:09:07 10° W 18:12:19 21° NW 18:15:34 10° N daylight
